Retour au catalogue

CZ-6A DEB

ActifSSO
NORAD 55898·DEBRIS·🇨🇳 China

Lancé Nov 11, 2022 depuis Taiyuan Satellite Launch Center

Loading…

Prochains Passages (prochaines 24 heures)

TLE

FraisSource: Space-Track

Époque: Sep 13, 2026, 22:13 UTC

1 55898U 22151AAW 26256.92629801  .00000776  00000-0  42219-3 0  9995
2 55898  98.8289 257.1737 0058094 103.4263 257.3394 14.14261411191445

Suivez CZ-6A DEB en temps réel avec AllMySat

Download on the App Store